TIME,�g�[�m���b�g���n,�t���O,�g�[�mMJ�n,�t���O
2003/2/1 0:00,0,0,0,0
2003/2/1 0:15,0,0,0,0
2003/2/1 0:30,0,0,0,0
2003/2/1 0:45,0,0,0,0
2003/2/1 1:00,0,0,0,0
2003/2/1 1:15,0,0,0,0
2003/2/1 1:30,0,0,0,0
2003/2/1 1:45,0,0,0,0
2003/2/1 2:00,0,0,0,0
2003/2/1 2:15,0,0,0,0
2003/2/1 2:30,0,0,0,0
2003/2/1 2:45,0,0,0,0
2003/2/1 3:00,0,0,0,0
2003/2/1 3:15,0,0,0,0
2003/2/1 3:30,0,0,0,0
2003/2/1 3:45,0,0,0,0
2003/2/1 4:00,0,0,0,0
2003/2/1 4:15,0,0,0,0
2003/2/1 4:30,0,0,0,0
2003/2/1 4:45,0,0,0,0
2003/2/1 5:00,0,0,0,0
2003/2/1 5:15,0,0,0,0
2003/2/1 5:30,0,0,0,0
2003/2/1 5:45,0,0,0,0
2003/2/1 6:00,0.00006923,0,8.41,0
2003/2/1 6:15,0.00015939,0,19.4,0
2003/2/1 6:30,0.00015778,0,19.29,0
2003/2/1 6:45,0.00015778,0,19.26,0
2003/2/1 7:00,0.00015617,0,19.14,0
2003/2/1 7:15,0.00015778,0,19.22,0
2003/2/1 7:30,0.00015617,0,19.1,0
2003/2/1 7:45,0.00015617,0,19.19,0
2003/2/1 8:00,0.00014651,0,17.87,0
2003/2/1 8:15,0.00015456,0,18.88,0
2003/2/1 8:30,0.00015617,0,19.12,0
2003/2/1 8:45,0.00015617,0,19.1,0
2003/2/1 9:00,0.00013846,0,16.85,0
2003/2/1 9:15,0.00013041,0,15.86,0
2003/2/1 9:30,0.00013363,0,16.4,0
2003/2/1 9:45,0.00013041,0,15.86,0
2003/2/1 10:00,0.00012558,0,15.46,0
2003/2/1 10:15,0.00012719,0,15.53,0
2003/2/1 10:30,0.00012558,0,15.46,0
2003/2/1 10:45,0.00012719,0,15.62,0
2003/2/1 11:00,0.00011592,0,14.09,0
2003/2/1 11:15,0,0,0,0
2003/2/1 11:30,0,0,0,0
2003/2/1 11:45,0,0,0,0
2003/2/1 12:00,0,0,0,0
2003/2/1 12:15,0,0,0,0
2003/2/1 12:30,0,0,0,0
2003/2/1 12:45,0,0,0,0
2003/2/1 13:00,0,0,0,0
2003/2/1 13:15,0,0,0,0
2003/2/1 13:30,0,0,0,0
2003/2/1 13:45,0,0,0,0
2003/2/1 14:00,0,0,0,0
2003/2/1 14:15,0.00004025,0,4.96,0
2003/2/1 14:30,0.00001449,0,1.73,0
2003/2/1 14:45,0,0,0,0
2003/2/1 15:00,0.00007406,0,9.15,0
2003/2/1 15:15,0.00015617,0,19.19,0
2003/2/1 15:30,0.0001449,0,17.66,0
2003/2/1 15:45,0.00013846,0,16.99,0
2003/2/1 16:00,0.00013846,0,16.97,0
2003/2/1 16:15,0.00013041,0,16.05,0
2003/2/1 16:30,0.0001288,0,15.84,0
2003/2/1 16:45,0.00014168,0,17.32,0
2003/2/1 17:00,0.00013846,0,16.9,0
2003/2/1 17:15,0.00014973,0,18.25,0
2003/2/1 17:30,0.00014973,0,18.29,0
2003/2/1 17:45,0.00014007,0,17.06,0
2003/2/1 18:00,0.00013685,0,16.71,0
2003/2/1 18:15,0.00012558,0,15.46,0
2003/2/1 18:30,0.00011431,0,13.9,0
2003/2/1 18:45,0.00008372,0,10.28,0
2003/2/1 19:00,0,0,0,0
2003/2/1 19:15,0.00008211,0,9.95,0
2003/2/1 19:30,0.00011592,0,14.13,0
2003/2/1 19:45,0.00010948,0,13.35,0
2003/2/1 20:00,0.00011109,0,13.5,0
2003/2/1 20:15,0.00011109,0,13.59,0
2003/2/1 20:30,0.0001127,0,13.83,0
2003/2/1 20:45,0.00010948,0,13.38,0
2003/2/1 21:00,0.00010948,0,13.45,0
2003/2/1 21:15,0.0000161,0,1.89,0
2003/2/1 21:30,0.00004186,0,5.15,0
2003/2/1 21:45,0.00007567,0,9.31,0
2003/2/1 22:00,0,0,0,0
2003/2/1 22:15,0,0,0,0
2003/2/1 22:30,0,0,0,0
2003/2/1 22:45,0,0,0,0
2003/2/1 23:00,0.00006279,0,7.68,0
2003/2/1 23:15,0.00001449,0,1.7,0
2003/2/1 23:30,0,0,0,0
2003/2/1 23:45,0,0,0,0
2003/2/2 0:00,0,0,0,0
2003/2/2 0:15,0,0,0,0
2003/2/2 0:30,0,0,0,0
2003/2/2 0:45,0,0,0,0
2003/2/2 1:00,0,0,0,0
2003/2/2 1:15,0,0,0,0
2003/2/2 1:30,0,0,0,0
2003/2/2 1:45,0,0,0,0
2003/2/2 2:00,0,0,0,0
2003/2/2 2:15,0,0,0,0
2003/2/2 2:30,0,0,0,0
2003/2/2 2:45,0,0,0,0
2003/2/2 3:00,0,0,0,0
2003/2/2 3:15,0,0,0,0
2003/2/2 3:30,0,0,0,0
2003/2/2 3:45,0,0,0,0
2003/2/2 4:00,0,0,0,0
2003/2/2 4:15,0,0,0,0
2003/2/2 4:30,0,0,0,0
2003/2/2 4:45,0,0,0,0
2003/2/2 5:00,0,0,0,0
2003/2/2 5:15,0,0,0,0
2003/2/2 5:30,0,0,0,0
2003/2/2 5:45,0,0,0,0
2003/2/2 6:00,0.00007406,0,9.03,0
2003/2/2 6:15,0.00015778,0,19.24,0
2003/2/2 6:30,0.00015617,0,19.1,0
2003/2/2 6:45,0.00015617,0,19.17,0
2003/2/2 7:00,0.00015617,0,19.03,0
2003/2/2 7:15,0.00015617,0,19.12,0
2003/2/2 7:30,0.00015617,0,19.07,0
2003/2/2 7:45,0.00015617,0,19.12,0
2003/2/2 8:00,0.00015617,0,19.1,0
2003/2/2 8:15,0.00014812,0,18.1,0
2003/2/2 8:30,0.00013846,0,16.92,0
2003/2/2 8:45,0.00012236,0,14.98,0
2003/2/2 9:00,0.00011109,0,13.54,0
2003/2/2 9:15,0.00003381,0,4.11,0
2003/2/2 9:30,0.00000966,0,1.16,0
2003/2/2 9:45,0.00011914,0,14.58,0
2003/2/2 10:00,0.00000483,0,0.5,0
2003/2/2 10:15,0,0,0,0
2003/2/2 10:30,0.00010465,0,12.81,0
2003/2/2 10:45,0.00000322,0,0.38,0
2003/2/2 11:00,0,0,0,0
2003/2/2 11:15,0.00008855,0,10.8,0
2003/2/2 11:30,0,0,0,0
2003/2/2 11:45,0,0,0,0
2003/2/2 12:00,0.00014329,0,17.58,0
2003/2/2 12:15,0.00009016,0,11.11,0
2003/2/2 12:30,0,0,0,0
2003/2/2 12:45,0,0,0,0
2003/2/2 13:00,0,0,0,0
2003/2/2 13:15,0,0,0,0
2003/2/2 13:30,0,0,0,0
2003/2/2 13:45,0,0,0,0
2003/2/2 14:00,0,0,0,0
2003/2/2 14:15,0,0,0,0
2003/2/2 14:30,0,0,0,0
2003/2/2 14:45,0,0,0,0
2003/2/2 15:00,0.00004508,0,5.55,0
2003/2/2 15:15,0,0,0,0
2003/2/2 15:30,0,0,0,0
2003/2/2 15:45,0,0,0,0
2003/2/2 16:00,0.00000644,0,0.76,0
2003/2/2 16:15,0.00007728,0,9.45,0
2003/2/2 16:30,0.00002254,0,2.84,0
2003/2/2 16:45,0.00014973,0,18.29,0
2003/2/2 17:00,0.00012558,0,15.46,0
2003/2/2 17:15,0.00012075,0,14.84,0
2003/2/2 17:30,0.00012075,0,14.77,0
2003/2/2 17:45,0.00012075,0,14.75,0
2003/2/2 18:00,0.00011914,0,14.56,0
2003/2/2 18:15,0.0001127,0,13.78,0
2003/2/2 18:30,0.00012075,0,14.77,0
2003/2/2 18:45,0.00011914,0,14.51,0
2003/2/2 19:00,0.00011914,0,14.61,0
2003/2/2 19:15,0.00010143,0,12.43,0
2003/2/2 19:30,0,0,0,0
2003/2/2 19:45,0,0,0,0
2003/2/2 20:00,0.00013524,0,16.47,0
2003/2/2 20:15,0.00011431,0,14.04,0
2003/2/2 20:30,0.00001932,0,2.43,0
2003/2/2 20:45,0,0,0,0
2003/2/2 21:00,0.00013202,0,16.07,0
2003/2/2 21:15,0.00011431,0,13.92,0
2003/2/2 21:30,0.00003703,0,4.51,0
2003/2/2 21:45,0,0,0,0
2003/2/2 22:00,0,0,0,0
2003/2/2 22:15,0.00002576,0,3.1,0
2003/2/2 22:30,0.00012075,0,14.75,0
2003/2/2 22:45,0,0,0,0
2003/2/2 23:00,0,0,0,0
2003/2/2 23:15,0.00002415,0,2.91,0
2003/2/2 23:30,0,0,0,0
2003/2/2 23:45,0,0,0,0
2003/2/3 0:00,0,0,0,0
2003/2/3 0:15,0,0,0,0
2003/2/3 0:30,0,0,0,0
2003/2/3 0:45,0,0,0,0
2003/2/3 1:00,0,0,0,0
2003/2/3 1:15,0,0,0,0
2003/2/3 1:30,0,0,0,0
2003/2/3 1:45,0,0,0,0
2003/2/3 2:00,0,0,0,0
2003/2/3 2:15,0,0,0,0
2003/2/3 2:30,0,0,0,0
2003/2/3 2:45,0,0,0,0
2003/2/3 3:00,0,0,0,0
2003/2/3 3:15,0,0,0,0
2003/2/3 3:30,0,0,0,0
2003/2/3 3:45,0,0,0,0
2003/2/3 4:00,0,0,0,0
2003/2/3 4:15,0,0,0,0
2003/2/3 4:30,0,0,0,0
2003/2/3 4:45,0,0,0,0
2003/2/3 5:00,0,0,0,0
2003/2/3 5:15,0,0,0,0
2003/2/3 5:30,0,0,0,0
2003/2/3 5:45,0,0,0,0
2003/2/3 6:00,0.00007245,0,8.93,0
2003/2/3 6:15,0.00015778,0,19.29,0
2003/2/3 6:30,0.00015617,0,19.07,0
2003/2/3 6:45,0.00015617,0,19.17,0
2003/2/3 7:00,0.00015617,0,19.03,0
2003/2/3 7:15,0.00014168,0,17.28,0
2003/2/3 7:30,0.00014168,0,17.32,0
2003/2/3 7:45,0.00014007,0,17.16,0
2003/2/3 8:00,0.00012236,0,15.06,0
2003/2/3 8:15,0.00012397,0,15.17,0
2003/2/3 8:30,0.00012075,0,14.75,0
2003/2/3 8:45,0.00011914,0,14.61,0
2003/2/3 9:00,0.00011592,0,14.25,0
2003/2/3 9:15,0.00010948,0,13.4,0
2003/2/3 9:30,0.00004025,0,4.85,0
2003/2/3 9:45,0,0,0,0
2003/2/3 10:00,0.00009499,0,11.53,0
2003/2/3 10:15,0.00000805,0,0.95,0
2003/2/3 10:30,0,0,0,0
2003/2/3 10:45,0.00008694,0,10.59,0
2003/2/3 11:00,0.00011431,0,13.9,0
2003/2/3 11:15,0.00011109,0,13.52,0
2003/2/3 11:30,0.00004186,0,5.06,0
2003/2/3 11:45,0,0,0,0
2003/2/3 12:00,0.0000483,0,5.93,0
2003/2/3 12:15,0.00008211,0,10.07,0
2003/2/3 12:30,0,0,0,0
2003/2/3 12:45,0.00003703,0,4.56,0
2003/2/3 13:00,0.0000805,0,9.88,0
2003/2/3 13:15,0,0,0,0
2003/2/3 13:30,0,0,0,0
2003/2/3 13:45,0.00010143,0,12.38,0
2003/2/3 14:00,0,0,0,0
2003/2/3 14:15,0,0,0,0
2003/2/3 14:30,0,0,0,0
2003/2/3 14:45,0,0,0,0
2003/2/3 15:00,0,0,0,0
2003/2/3 15:15,0,0,0,0
2003/2/3 15:30,0,0,0,0
2003/2/3 15:45,0.00000322,0,0.33,0
2003/2/3 16:00,0.00006601,0,8.13,0
2003/2/3 16:15,0,0,0,0
2003/2/3 16:30,0,0,0,0
2003/2/3 16:45,0,0,0,0
2003/2/3 17:00,0.00004025,0,5.01,0
2003/2/3 17:15,0.00004347,0,5.34,0
2003/2/3 17:30,0,0,0,0
2003/2/3 17:45,0,0,0,0
2003/2/3 18:00,0.00002415,0,2.93,0
2003/2/3 18:15,0.00006601,0,8.13,0
2003/2/3 18:30,0,0,0,0
2003/2/3 18:45,0,0,0,0
2003/2/3 19:00,0.00005474,0,6.71,0
2003/2/3 19:15,0.00004025,0,4.85,0
2003/2/3 19:30,0,0,0,0
2003/2/3 19:45,0,0,0,0
2003/2/3 20:00,0.00007406,0,9.05,0
2003/2/3 20:15,0.00015778,0,19.29,0
2003/2/3 20:30,0.00015617,0,19.07,0
2003/2/3 20:45,0.00014168,0,17.42,0
2003/2/3 21:00,0.00014168,0,17.32,0
2003/2/3 21:15,0.0001449,0,17.82,0
2003/2/3 21:30,0.00013846,0,16.97,0
2003/2/3 21:45,0.00013685,0,16.66,0
2003/2/3 22:00,0.00013363,0,16.33,0
2003/2/3 22:15,0.00012719,0,15.53,0
2003/2/3 22:30,0.00012719,0,15.48,0
2003/2/3 22:45,0.00012558,0,15.43,0
2003/2/3 23:00,0.00009499,0,11.65,0
2003/2/3 23:15,0,0,0,0
2003/2/3 23:30,0,0,0,0
2003/2/3 23:45,0,0,0,0
2003/2/4 0:00,0,0,0,0
2003/2/4 0:15,0,0,0,0
2003/2/4 0:30,0,0,0,0
2003/2/4 0:45,0,0,0,0
2003/2/4 1:00,0,0,0,0
2003/2/4 1:15,0,0,0,0
2003/2/4 1:30,0,0,0,0
2003/2/4 1:45,0,0,0,0
2003/2/4 2:00,0,0,0,0
2003/2/4 2:15,0,0,0,0
2003/2/4 2:30,0,0,0,0
2003/2/4 2:45,0,0,0,0
2003/2/4 3:00,0,0,0,0
2003/2/4 3:15,0,0,0,0
2003/2/4 3:30,0,0,0,0
2003/2/4 3:45,0,0,0,0
2003/2/4 4:00,0,0,0,0
2003/2/4 4:15,0,0,0,0
2003/2/4 4:30,0,0,0,0
2003/2/4 4:45,0,0,0,0
2003/2/4 5:00,0,0,0,0
2003/2/4 5:15,0,0,0,0
2003/2/4 5:30,0,0,0,0
2003/2/4 5:45,0,0,0,0
2003/2/4 6:00,0.00007245,0,8.82,0
2003/2/4 6:15,0.00015778,0,19.36,0
2003/2/4 6:30,0.00015617,0,19.19,0
2003/2/4 6:45,0.00015617,0,19.19,0
2003/2/4 7:00,0.00015617,0,19.14,0
2003/2/4 7:15,0.00015617,0,19.17,0
2003/2/4 7:30,0.00015778,0,19.22,0
2003/2/4 7:45,0.00015617,0,19.1,0
2003/2/4 8:00,0.00014973,0,18.36,0
2003/2/4 8:15,0.00014007,0,17.11,0
2003/2/4 8:30,0.00013846,0,16.9,0
2003/2/4 8:45,0.00013685,0,16.76,0
2003/2/4 9:00,0.00014168,0,17.3,0
2003/2/4 9:15,0.00012719,0,15.48,0
2003/2/4 9:30,0.00012719,0,15.5,0
2003/2/4 9:45,0.00012558,0,15.46,0
2003/2/4 10:00,0.00012558,0,15.46,0
2003/2/4 10:15,0.00012719,0,15.53,0
2003/2/4 10:30,0.00012236,0,14.91,0
2003/2/4 10:45,0.00012075,0,14.75,0
2003/2/4 11:00,0.00012075,0,14.7,0
2003/2/4 11:15,0.00011914,0,14.58,0
2003/2/4 11:30,0.00011914,0,14.51,0
2003/2/4 11:45,0.00010948,0,13.38,0
2003/2/4 12:00,0.00011431,0,13.92,0
2003/2/4 12:15,0.00006279,0,7.75,0
2003/2/4 12:30,0,0,0,0
2003/2/4 12:45,0.00001449,0,1.8,0
2003/2/4 13:00,0.00013685,0,16.71,0
2003/2/4 13:15,0.00011592,0,14.18,0
2003/2/4 13:30,0.00003542,0,4.42,0
2003/2/4 13:45,0,0,0,0
2003/2/4 14:00,0,0,0,0
2003/2/4 14:15,0,0,0,0
2003/2/4 14:30,0,0,0,0
2003/2/4 14:45,0,0,0,0
2003/2/4 15:00,0,0,0,0
2003/2/4 15:15,0,0,0,0
2003/2/4 15:30,0,0,0,0
2003/2/4 15:45,0,0,0,0
2003/2/4 16:00,0,0,0,0
2003/2/4 16:15,0.00002737,0,3.43,0
2003/2/4 16:30,0.00002737,0,3.26,0
2003/2/4 16:45,0,0,0,0
2003/2/4 17:00,0,0,0,0
2003/2/4 17:15,0,0,0,0
2003/2/4 17:30,0.00007084,0,8.7,0
2003/2/4 17:45,0.00008533,0,10.42,0
2003/2/4 18:00,0.00015617,0,19.07,0
2003/2/4 18:15,0.00013363,0,16.43,0
2003/2/4 18:30,0.00013041,0,15.98,0
2003/2/4 18:45,0.00012236,0,15.06,0
2003/2/4 19:00,0.00011914,0,14.54,0
2003/2/4 19:15,0.00012236,0,14.94,0
2003/2/4 19:30,0.00011753,0,14.42,0
2003/2/4 19:45,0.00010948,0,13.35,0
2003/2/4 20:00,0.00010948,0,13.4,0
2003/2/4 20:15,0.00010948,0,13.42,0
2003/2/4 20:30,0.00011109,0,13.61,0
2003/2/4 20:45,0.00011431,0,14.04,0
2003/2/4 21:00,0.00002576,0,3.07,0
2003/2/4 21:15,0.00011109,0,13.54,0
2003/2/4 21:30,0.00010948,0,13.47,0
2003/2/4 21:45,0.00005152,0,6.38,0
2003/2/4 22:00,0.00005796,0,7.19,0
2003/2/4 22:15,0.00011592,0,14.25,0
2003/2/4 22:30,0.00011592,0,14.2,0
2003/2/4 22:45,0.00011753,0,14.32,0
2003/2/4 23:00,0.00011109,0,13.66,0
2003/2/4 23:15,0.00011109,0,13.59,0
2003/2/4 23:30,0.0000483,0,5.86,0
2003/2/4 23:45,0,0,0,0
2003/2/5 0:00,0,0,0,0
2003/2/5 0:15,0,0,0,0
2003/2/5 0:30,0,0,0,0
2003/2/5 0:45,0,0,0,0
2003/2/5 1:00,0,0,0,0
2003/2/5 1:15,0,0,0,0
2003/2/5 1:30,0,0,0,0
2003/2/5 1:45,0,0,0,0
2003/2/5 2:00,0,0,0,0
2003/2/5 2:15,0,0,0,0
2003/2/5 2:30,0,0,0,0
2003/2/5 2:45,0,0,0,0
2003/2/5 3:00,0,0,0,0
2003/2/5 3:15,0,0,0,0
2003/2/5 3:30,0,0,0,0
2003/2/5 3:45,0,0,0,0
2003/2/5 4:00,0,0,0,0
2003/2/5 4:15,0,0,0,0
2003/2/5 4:30,0,0,0,0
2003/2/5 4:45,0,0,0,0
2003/2/5 5:00,0,0,0,0
2003/2/5 5:15,0,0,0,0
2003/2/5 5:30,0,0,0,0
2003/2/5 5:45,0,0,0,0
2003/2/5 6:00,0.00007406,0,8.98,0
2003/2/5 6:15,0.00015778,0,19.31,0
2003/2/5 6:30,0.00015617,0,19.14,0
2003/2/5 6:45,0.00015778,0,19.24,0
2003/2/5 7:00,0.00015617,0,19.12,0
2003/2/5 7:15,0.00015617,0,19.17,0
2003/2/5 7:30,0.00015617,0,19.12,0
2003/2/5 7:45,0.00015456,0,18.91,0
2003/2/5 8:00,0.0001449,0,17.63,0
2003/2/5 8:15,0.00013524,0,16.52,0
2003/2/5 8:30,0.00012558,0,15.46,0
2003/2/5 8:45,0.00012397,0,15.24,0
2003/2/5 9:00,0.00011914,0,14.49,0
2003/2/5 9:15,0.00011592,0,14.18,0
2003/2/5 9:30,0.00010948,0,13.45,0
2003/2/5 9:45,0.00008855,0,10.8,0
2003/2/5 10:00,0,0,0,0
2003/2/5 10:15,0.00002898,0,3.59,0
2003/2/5 10:30,0.00012558,0,15.41,0
2003/2/5 10:45,0,0,0,0
2003/2/5 11:00,0,0,0,0
2003/2/5 11:15,0,0,0,0
2003/2/5 11:30,0,0,0,0
2003/2/5 11:45,0,0,0,0
2003/2/5 12:00,0,0,0,0
2003/2/5 12:15,0,0,0,0
2003/2/5 12:30,0,0,0,0
2003/2/5 12:45,0,0,0,0
2003/2/5 13:00,0,0,0,0
2003/2/5 13:15,0,0,0,0
2003/2/5 13:30,0,0,0,0
2003/2/5 13:45,0,0,0,0
2003/2/5 14:00,0,0,0,0
2003/2/5 14:15,0,0,0,0
2003/2/5 14:30,0,0,0,0
2003/2/5 14:45,0,0,0,0
2003/2/5 15:00,0.00006601,0,8.01,0
2003/2/5 15:15,0,0,0,0
2003/2/5 15:30,0,0,0,0
2003/2/5 15:45,0,0,0,0
2003/2/5 16:00,0,0,0,0
2003/2/5 16:15,0.00005957,0,7.26,0
2003/2/5 16:30,0.00001771,0,2.2,0
2003/2/5 16:45,0,0,0,0
2003/2/5 17:00,0,0,0,0
2003/2/5 17:15,0,0,0,0
2003/2/5 17:30,0.00009016,0,10.99,0
2003/2/5 17:45,0,0,0,0
2003/2/5 18:00,0,0,0,0
2003/2/5 18:15,0.00013041,0,15.88,0
2003/2/5 18:30,0.00015778,0,19.24,0
2003/2/5 18:45,0.00015617,0,19.12,0
2003/2/5 19:00,0.00015134,0,18.48,0
2003/2/5 19:15,0.00014007,0,17.21,0
2003/2/5 19:30,0.00013846,0,16.92,0
2003/2/5 19:45,0.00013846,0,16.92,0
2003/2/5 20:00,0.00012719,0,15.58,0
2003/2/5 20:15,0.00012558,0,15.46,0
2003/2/5 20:30,0.00012558,0,15.29,0
2003/2/5 20:45,0.00012075,0,14.72,0
2003/2/5 21:00,0.00011914,0,14.56,0
2003/2/5 21:15,0.00012236,0,15.06,0
2003/2/5 21:30,0.00012236,0,14.98,0
2003/2/5 21:45,0,0,0,0
2003/2/5 22:00,0,0,0,0
2003/2/5 22:15,0,0,0,0
2003/2/5 22:30,0.00010787,0,13.21,0
2003/2/5 22:45,0.00010948,0,13.42,0
2003/2/5 23:00,0.00005635,0,6.97,0
2003/2/5 23:15,0,0,0,0
2003/2/5 23:30,0,0,0,0
2003/2/5 23:45,0,0,0,0
2003/2/6 0:00,0,0,0,0
2003/2/6 0:15,0,0,0,0
2003/2/6 0:30,0,0,0,0
2003/2/6 0:45,0,0,0,0
2003/2/6 1:00,0,0,0,0
2003/2/6 1:15,0,0,0,0
2003/2/6 1:30,0,0,0,0
2003/2/6 1:45,0,0,0,0
2003/2/6 2:00,0,0,0,0
2003/2/6 2:15,0,0,0,0
2003/2/6 2:30,0,0,0,0
2003/2/6 2:45,0,0,0,0
2003/2/6 3:00,0,0,0,0
2003/2/6 3:15,0,0,0,0
2003/2/6 3:30,0,0,0,0
2003/2/6 3:45,0,0,0,0
2003/2/6 4:00,0,0,0,0
2003/2/6 4:15,0,0,0,0
2003/2/6 4:30,0,0,0,0
2003/2/6 4:45,0,0,0,0
2003/2/6 5:00,0,0,0,0
2003/2/6 5:15,0,0,0,0
2003/2/6 5:30,0,0,0,0
2003/2/6 5:45,0,0,0,0
2003/2/6 6:00,0.00007245,0,8.77,0
2003/2/6 6:15,0.00015778,0,19.31,0
2003/2/6 6:30,0.00015617,0,19.19,0
2003/2/6 6:45,0.00015778,0,19.22,0
2003/2/6 7:00,0.00015617,0,19.14,0
2003/2/6 7:15,0.00015617,0,19.12,0
2003/2/6 7:30,0.00015617,0,19.12,0
2003/2/6 7:45,0.00015617,0,19.07,0
2003/2/6 8:00,0.00015617,0,19.12,0
2003/2/6 8:15,0.00014812,0,18.15,0
2003/2/6 8:30,0.00015456,0,18.98,0
2003/2/6 8:45,0.00013846,0,16.97,0
2003/2/6 9:00,0.00000966,0,1.28,0
2003/2/6 9:15,0,0,0,0
2003/2/6 9:30,0,0,0,0
2003/2/6 9:45,0.00002415,0,2.95,0
2003/2/6 10:00,0.00009499,0,11.53,0
2003/2/6 10:15,0,0,0,0
2003/2/6 10:30,0,0,0,0
2003/2/6 10:45,0,0,0,0
2003/2/6 11:00,0.00009821,0,12.08,0
2003/2/6 11:15,0.0000644,0,7.92,0
2003/2/6 11:30,0,0,0,0
2003/2/6 11:45,0,0,0,0
2003/2/6 12:00,0,0,0,0
2003/2/6 12:15,0,0,0,0
2003/2/6 12:30,0,0,0,0
2003/2/6 12:45,0,0,0,0
2003/2/6 13:00,0,0,0,0
2003/2/6 13:15,0,0,0,0
2003/2/6 13:30,0,0,0,0
2003/2/6 13:45,0,0,0,0
2003/2/6 14:00,0,0,0.02,0
2003/2/6 14:15,0,0,0,0
2003/2/6 14:30,0.00000805,0,0.99,0
2003/2/6 14:45,0.00004508,0,5.55,0
2003/2/6 15:00,0,0,0,0
2003/2/6 15:15,0,0,0,0
2003/2/6 15:30,0,0,0,0
2003/2/6 15:45,0,0,0,0
2003/2/6 16:00,0.00001449,0,1.87,0
2003/2/6 16:15,0.00006923,0,8.56,0
2003/2/6 16:30,0,0,0,0
2003/2/6 16:45,0,0,0,0
2003/2/6 17:00,0,0,0,0
2003/2/6 17:15,0.00006923,0,8.41,0
2003/2/6 17:30,0.00003542,0,4.3,0
2003/2/6 17:45,0,0,0,0
2003/2/6 18:00,0,0,0,0
2003/2/6 18:15,0.00004508,0,5.51,0
2003/2/6 18:30,0.00007728,0,9.36,0
2003/2/6 18:45,0.00000805,0,0.9,0
2003/2/6 19:00,0.00015295,0,18.79,0
2003/2/6 19:15,0.00015617,0,19.03,0
2003/2/6 19:30,0.00014973,0,18.22,0
2003/2/6 19:45,0.00014651,0,18.01,0
2003/2/6 20:00,0.00013846,0,16.9,0
2003/2/6 20:15,0.00013041,0,16,0
2003/2/6 20:30,0.00012719,0,15.55,0
2003/2/6 20:45,0.00012397,0,15.13,0
2003/2/6 21:00,0.00012558,0,15.39,0
2003/2/6 21:15,0.00012558,0,15.39,0
2003/2/6 21:30,0.00012719,0,15.53,0
2003/2/6 21:45,0.00012397,0,15.22,0
2003/2/6 22:00,0.00012075,0,14.72,0
2003/2/6 22:15,0.00012558,0,15.46,0
2003/2/6 22:30,0.00012719,0,15.65,0
2003/2/6 22:45,0.00012075,0,14.82,0
2003/2/6 23:00,0.00011914,0,14.51,0
2003/2/6 23:15,0.00011914,0,14.49,0
2003/2/6 23:30,0.00000805,0,0.97,0
2003/2/6 23:45,0,0,0,0
2003/2/7 0:00,0,0,0,0
2003/2/7 0:15,0,0,0,0
2003/2/7 0:30,0,0,0,0
2003/2/7 0:45,0,0,0,0
2003/2/7 1:00,0,0,0,0
2003/2/7 1:15,0,0,0,0
2003/2/7 1:30,0,0,0,0
2003/2/7 1:45,0,0,0,0
2003/2/7 2:00,0,0,0,0
2003/2/7 2:15,0,0,0,0
2003/2/7 2:30,0,0,0,0
2003/2/7 2:45,0,0,0,0
2003/2/7 3:00,0,0,0,0
2003/2/7 3:15,0,0,0,0
2003/2/7 3:30,0,0,0,0
2003/2/7 3:45,0,0,0,0
2003/2/7 4:00,0,0,0,0
2003/2/7 4:15,0,0,0,0
2003/2/7 4:30,0,0,0,0
2003/2/7 4:45,0,0,0,0
2003/2/7 5:00,0,0,0,0
2003/2/7 5:15,0,0,0,0
2003/2/7 5:30,0,0,0,0
2003/2/7 5:45,0.0000161,0,1.91,0
2003/2/7 6:00,0.00015939,0,19.45,0
2003/2/7 6:15,0.00015617,0,19.19,0
2003/2/7 6:30,0.00015617,0,19.19,0
2003/2/7 6:45,0.00015617,0,19.12,0
2003/2/7 7:00,0.00015617,0,19.14,0
2003/2/7 7:15,0.00015617,0,19.1,0
2003/2/7 7:30,0.00015617,0,19.05,0
2003/2/7 7:45,0.00015134,0,18.44,0
2003/2/7 8:00,0.00014007,0,17.21,0
2003/2/7 8:15,0.00013202,0,16.19,0
2003/2/7 8:30,0.00012719,0,15.58,0
2003/2/7 8:45,0.00012719,0,15.62,0
2003/2/7 9:00,0.00012719,0,15.6,0
2003/2/7 9:15,0.00012236,0,14.94,0
2003/2/7 9:30,0.00012075,0,14.82,0
2003/2/7 9:45,0.00008694,0,10.54,0
2003/2/7 10:00,0,0,0,0
2003/2/7 10:15,0,0,0,0
2003/2/7 10:30,0,0,0,0
2003/2/7 10:45,0,0,0,0
2003/2/7 11:00,0,0,0,0
2003/2/7 11:15,0,0,0,0
2003/2/7 11:30,0,0,0,0
2003/2/7 11:45,0,0,0,0
2003/2/7 12:00,0,0,0,0
2003/2/7 12:15,0,0,0,0
2003/2/7 12:30,0.00009499,0,11.68,0
2003/2/7 12:45,0.00014007,0,17.09,0
2003/2/7 13:00,0.00011592,0,14.16,0
2003/2/7 13:15,0.00003542,0,4.28,0
2003/2/7 13:30,0,0,0,0
2003/2/7 13:45,0.00000322,0,0.33,0
2003/2/7 14:00,0.00012719,0,15.5,0
2003/2/7 14:15,0.00000161,0,0.24,0
2003/2/7 14:30,0,0,0,0
2003/2/7 14:45,0,0,0.05,0
2003/2/7 15:00,0,0,0,0
2003/2/7 15:15,0,0,0,0
2003/2/7 15:30,0,0,0,0
2003/2/7 15:45,0,0,0,0
2003/2/7 16:00,0,0,0,0
2003/2/7 16:15,0,0,0,0
2003/2/7 16:30,0,0,0,0
2003/2/7 16:45,0,0,0,0
2003/2/7 17:00,0,0,0,0
2003/2/7 17:15,0,0,0,0
2003/2/7 17:30,0.0000322,0,3.88,0
2003/2/7 17:45,0.00002737,0,3.33,0
2003/2/7 18:00,0,0,0,0
2003/2/7 18:15,0,0,0,0
2003/2/7 18:30,0,0,0,0
2003/2/7 18:45,0,0,0,0
2003/2/7 19:00,0.00000322,0,0.33,0
2003/2/7 19:15,0.00006923,0,8.41,0
2003/2/7 19:30,0,0,0,0
2003/2/7 19:45,0,0,0,0
2003/2/7 20:00,0,0,0,0
2003/2/7 20:15,0,0,0,0
2003/2/7 20:30,0.00007728,0,9.48,0
2003/2/7 20:45,0,0,0,0
2003/2/7 21:00,0,0,0,0
2003/2/7 21:15,0,0,0,0
2003/2/7 21:30,0.00001771,0,2.1,0
2003/2/7 21:45,0.00015617,0,19.19,0
2003/2/7 22:00,0.00015617,0,19.17,0
2003/2/7 22:15,0.00014651,0,17.89,0
2003/2/7 22:30,0.0001288,0,15.84,0
2003/2/7 22:45,0.00012719,0,15.65,0
2003/2/7 23:00,0.00012719,0,15.5,0
2003/2/7 23:15,0.00012719,0,15.48,0
2003/2/7 23:30,0.00012397,0,15.2,0
2003/2/7 23:45,0.00011914,0,14.54,0
2003/2/8 0:00,0.00011592,0,14.28,0
2003/2/8 0:15,0.00003059,0,3.69,0
2003/2/8 0:30,0,0,0,0
2003/2/8 0:45,0,0,0,0
2003/2/8 1:00,0,0,0,0
2003/2/8 1:15,0,0,0,0
2003/2/8 1:30,0,0,0,0
2003/2/8 1:45,0,0,0,0
2003/2/8 2:00,0,0,0,0
2003/2/8 2:15,0,0,0,0
2003/2/8 2:30,0,0,0,0
2003/2/8 2:45,0,0,0,0
2003/2/8 3:00,0,0,0,0
2003/2/8 3:15,0,0,0,0
2003/2/8 3:30,0,0,0,0
2003/2/8 3:45,0,0,0,0
2003/2/8 4:00,0,0,0,0
2003/2/8 4:15,0,0,0,0
2003/2/8 4:30,0,0,0,0
2003/2/8 4:45,0,0,0,0
2003/2/8 5:00,0,0,0,0
2003/2/8 5:15,0,0,0,0
2003/2/8 5:30,0,0,0,0
2003/2/8 5:45,0,0,0,0
2003/2/8 6:00,0.00006923,0,8.39,0
2003/2/8 6:15,0.00015778,0,19.29,0
2003/2/8 6:30,0.00015778,0,19.29,0
2003/2/8 6:45,0.00015617,0,19.14,0
2003/2/8 7:00,0.00015617,0,19.17,0
2003/2/8 7:15,0.00015617,0,19.17,0
2003/2/8 7:30,0.00014973,0,18.39,0
2003/2/8 7:45,0.00013846,0,16.88,0
2003/2/8 8:00,0.00012719,0,15.5,0
2003/2/8 8:15,0.00011592,0,14.25,0
2003/2/8 8:30,0,0,0,0
2003/2/8 8:45,0,0,0,0
2003/2/8 9:00,0.00010465,0,12.76,0
2003/2/8 9:15,0,0,0,0
2003/2/8 9:30,0,0,0,0
2003/2/8 9:45,0,0,0,0
2003/2/8 10:00,0.00008855,0,10.75,0
2003/2/8 10:15,0,0,0,0
2003/2/8 10:30,0,0,0,0
2003/2/8 10:45,0.00000966,0,1.23,0
2003/2/8 11:00,0.00006923,0,8.48,0
2003/2/8 11:15,0,0,0,0
2003/2/8 11:30,0,0,0,0
2003/2/8 11:45,0,0,0,0
2003/2/8 12:00,0,0,0,0
2003/2/8 12:15,0,0,0,0
2003/2/8 12:30,0,0,0,0
2003/2/8 12:45,0,0,0,0
2003/2/8 13:00,0,0,0,0
2003/2/8 13:15,0,0,0,0
2003/2/8 13:30,0,0,0,0
2003/2/8 13:45,0,0,0,0
2003/2/8 14:00,0,0,0,0
2003/2/8 14:15,0,0,0,0
2003/2/8 14:30,0,0,0,0
2003/2/8 14:45,0,0,0,0
2003/2/8 15:00,0,0,0,0
2003/2/8 15:15,0,0,0,0
2003/2/8 15:30,0,0,0,0
2003/2/8 15:45,0,0,0,0
2003/2/8 16:00,0,0,0,0
2003/2/8 16:15,0,0,0,0
2003/2/8 16:30,0,0,0,0
2003/2/8 16:45,0,0,0,0
2003/2/8 17:00,0,0,0,0
2003/2/8 17:15,0,0,0,0
2003/2/8 17:30,0,0,0,0
2003/2/8 17:45,0.00012075,0,14.77,0
2003/2/8 18:00,0.00015134,0,18.55,0
2003/2/8 18:15,0.0001288,0,15.76,0
2003/2/8 18:30,0.00012236,0,14.94,0
2003/2/8 18:45,0.00010948,0,13.33,0
2003/2/8 19:00,0,0,0,0
2003/2/8 19:15,0,0,0,0
2003/2/8 19:30,0.00001771,0,2.25,0
2003/2/8 19:45,0.00011914,0,14.49,0
2003/2/8 20:00,0,0,0,0
2003/2/8 20:15,0,0,0,0
2003/2/8 20:30,0.0000483,0,5.91,0
2003/2/8 20:45,0.00012075,0,14.8,0
2003/2/8 21:00,0.00011109,0,13.64,0
2003/2/8 21:15,0.00007889,0,9.62,0
2003/2/8 21:30,0,0,0,0
2003/2/8 21:45,0,0,0,0
2003/2/8 22:00,0,0,0,0
2003/2/8 22:15,0,0,0,0
2003/2/8 22:30,0,0,0,0
2003/2/8 22:45,0,0,0,0
2003/2/8 23:00,0,0,0,0
2003/2/8 23:15,0.00007728,0,9.45,0
2003/2/8 23:30,0,0,0.02,0
2003/2/8 23:45,0,0,0,0
2003/2/9 0:00,0,0,0,0
2003/2/9 0:15,0,0,0,0
2003/2/9 0:30,0,0,0,0
2003/2/9 0:45,0,0,0,0
2003/2/9 1:00,0,0,0,0
2003/2/9 1:15,0,0,0,0
2003/2/9 1:30,0,0,0,0
2003/2/9 1:45,0,0,0,0
2003/2/9 2:00,0,0,0,0
2003/2/9 2:15,0,0,0,0
2003/2/9 2:30,0,0,0,0
2003/2/9 2:45,0,0,0,0
2003/2/9 3:00,0,0,0,0
2003/2/9 3:15,0,0,0,0
2003/2/9 3:30,0,0,0,0
2003/2/9 3:45,0,0,0,0
2003/2/9 4:00,0,0,0,0
2003/2/9 4:15,0,0,0,0
2003/2/9 4:30,0,0,0,0
2003/2/9 4:45,0,0,0,0
2003/2/9 5:00,0,0,0,0
2003/2/9 5:15,0,0,0,0
2003/2/9 5:30,0,0,0,0
2003/2/9 5:45,0,0,0,0
2003/2/9 6:00,0,0,0,0
2003/2/9 6:15,0.00011914,0,14.56,0
2003/2/9 6:30,0.00012719,0,15.53,0
2003/2/9 6:45,0.00003703,0,4.51,0
2003/2/9 7:00,0.00002737,0,3.33,0
2003/2/9 7:15,0.00015778,0,19.26,0
2003/2/9 7:30,0.00014973,0,18.27,0
2003/2/9 7:45,0.00013524,0,16.57,0
2003/2/9 8:00,0.00012397,0,15.24,0
2003/2/9 8:15,0.00012558,0,15.32,0
2003/2/9 8:30,0.00011753,0,14.46,0
2003/2/9 8:45,0.00011109,0,13.59,0
2003/2/9 9:00,0.00010948,0,13.45,0
2003/2/9 9:15,0.0000161,0,2.03,0
2003/2/9 9:30,0,0,0,0
2003/2/9 9:45,0,0,0,0
2003/2/9 10:00,0,0,0,0
2003/2/9 10:15,0,0,0,0
2003/2/9 10:30,0,0,0,0
2003/2/9 10:45,0.00005474,0,6.71,0
2003/2/9 11:00,0.00015134,0,18.48,0
2003/2/9 11:15,0.00011914,0,14.65,0
2003/2/9 11:30,0.00011109,0,13.61,0
2003/2/9 11:45,0.00011109,0,13.64,0
2003/2/9 12:00,0.00007889,0,9.62,0